Torna al catalogo

STARLINK-32519

AttivoComunicazioniVLEO
NORAD 62317·PAYLOAD·🇺🇸 United States

Lanciato Dec 13, 2024 da Vandenberg Space Force Base

Loading…

Prossimi Passaggi (prossime 24 ore)

TLE

AggiornatoSource: CelesTrak SupGP

Epoca: Sep 14, 2026, 20:37 UTC

1 62317C 24239S   26257.85951389  .00024904  00000+0  80119-3 0  2576
2 62317  53.1586  21.0799 0001298  80.4546   8.2182 15.31676111    18

Traccia STARLINK-32519 in tempo reale con AllMySat

Download on the App Store